#timestamp,LO_Frequency,Hit,StdDev 
1640948415.1,286047000.8,P
1640948416.0,286047000.8,P
1640948435.8,286047000.7,Y
1640948455.7,286046998.7,P
1640948475.5,286046998.4,N
1640948495.3,286046998.7,N
1640948515.2,286047001.2,N
1640948535.0,286046998.4,N
1640948535.9,286046998.4,N
1640948555.8,286046998.4,N
1640948575.6,286046998.7,N
1640948595.4,286046998.4,N
1640948615.3,286046998.3,N
1640948635.1,286046998.6,N
1640948655.9,286046998.4,N
1640948675.7,286046998.7,N
1640948695.5,286046998.8,N
1640948715.4,286046998.8,N
1640948735.2,286046998.8,N
1640948755.0,286046998.2,N
1640948755.9,286046998.2,N
1640948775.8,286046998.5,N
1640948795.6,286046999.0,N
1640948815.5,286046998.5,N
1640948835.3,286046998.6,N
1640948855.1,286046998.5,N
1640948875.9,286046998.7,N
1640948895.7,286046998.4,N
1640948915.5,286046998.3,N
1640948935.4,286046998.3,N
1640948955.2,286046998.7,N
1640948975.0,286047001.2,N
1640948976.0,286047001.2,N
1640948995.8,286046998.4,N
1640949015.6,286046998.1,N
1640949035.5,286046998.6,N
1640949055.3,286046998.6,N
1640949075.1,286046998.3,N
1640949095.9,286046998.3,N
1640949115.7,286046998.3,N
1640949135.5,286046998.9,N
1640949155.4,286046998.9,N
1640949175.2,286046998.7,N
1640949195.1,286046998.2,N
1640949196.0,286046998.2,N
1640949215.8,286046998.5,N
1640949235.6,286046998.5,N
1640949255.5,286046998.2,N
1640949275.3,286046998.1,N
1640949295.1,286046998.5,N
1640949315.9,286046998.6,N
1640949335.7,286047000.8,N
1640949355.6,286046998.6,N
1640949375.4,286046998.2,N
1640949395.2,286047000.8,N
1640949415.1,286047000.9,N
1640949416.0,286047000.9,N
1640949435.8,286047001.2,N
1640949455.6,286047001.0,N
1640949475.5,286047000.2,N
1640949495.3,286047000.2,N
1640949515.2,286047000.3,N
1640949535.9,286047000.8,N
1640949555.7,286047000.5,N
1640949575.6,286047000.3,N
1640949595.4,286047000.3,N
1640949615.2,286046999.9,N
1640949635.1,286047000.9,N
1640949636.0,286047000.9,N
1640949655.8,286047000.9,N
1640949675.7,286047001.0,N
1640949695.5,286047000.2,N
1640949715.3,286047000.6,N
1640949735.2,286047000.6,N
1640949755.0,286047000.6,N
1640949755.9,286047000.6,N
1640949775.7,286047001.0,N
1640949795.6,286047000.9,N
1640949815.4,286047000.7,N
1640949835.3,286047001.0,N
1640949855.1,286047000.9,N
1640949856.0,286047000.9,N
1640949875.8,286047001.0,N
1640949895.7,286047000.7,N
1640949915.5,286047000.7,N
1640949935.3,286047000.7,N
1640949955.2,286047000.4,N
1640949975.0,286047000.0,N
1640949975.9,286047000.0,N
1640949995.8,286047000.0,N
1640950015.6,286047000.3,N
1640950035.4,286047000.0,N
1640950055.3,286047000.5,N
1640950075.1,286047000.0,N
1640950095.8,286046999.9,N
1640950115.7,286047000.1,N
1640950135.5,286046999.9,N
1640950155.4,286047000.0,N
1640950175.2,286047000.0,N
1640950195.0,286047000.0,N
1640950195.9,286047000.0,N
1640950215.8,286047000.1,N
1640950235.6,286046999.8,N
1640950255.4,286047000.4,N
1640950275.3,286047000.1,N
1640950295.1,286047000.1,N
1640950315.9,286047002.7,Y
1640950335.7,286047000.1,P
1640950355.5,286047000.1,N
1640950375.4,286046999.8,N
1640950395.2,286047000.1,N
1640950415.1,286046999.7,N
1640950416.0,286046999.7,N
1640950435.8,286046999.8,N
1640950455.6,286047002.8,Y
1640950475.5,286047002.7,P
1640950495.3,286047000.0,N
1640950515.1,286047002.4,N
1640950535.9,286047002.0,N
1640950555.7,286047002.1,N
1640950575.6,286047002.2,N
1640950595.4,286047002.2,N
1640950615.2,286047002.5,N
1640950635.1,286047002.6,N
1640950636.0,286047002.6,N
1640950655.8,286047002.8,N
1640950675.6,286047002.2,N
1640950695.5,286047002.0,N
1640950715.3,286047002.6,N
1640950735.2,286047002.1,N
1640950755.9,286047002.5,N
1640950775.7,286047001.5,N
1640950795.6,286047001.5,N
1640950815.4,286047001.5,N
1640950835.2,286047001.8,N
1640950855.1,286047001.6,N
1640950856.0,286047001.6,N
1640950875.8,286047004.4,Y
1640950895.7,286047000.4,P
1640950915.5,286046999.8,N
1640950935.3,286047000.4,N
1640950955.2,286047000.5,N
1640950975.0,286047000.4,N
1640950975.9,286047000.4,N
1640950995.8,286047000.4,N
1640951015.6,286047000.2,N
1640951035.4,286047000.4,N
1640951055.3,286047000.3,N
1640951075.1,286046999.9,N
1640951095.9,286047002.3,Y
1640951115.7,286047000.3,P
1640951135.5,286047000.0,N
1640951155.4,286046999.9,N
1640951175.2,286047000.2,N
1640951195.0,286047000.2,N
1640951195.9,286047000.2,N
1640951215.8,286047002.6,Y
1640951235.6,286047000.1,P
1640951255.5,286046999.8,P
1640951275.3,286047000.1,N
1640951295.1,286047002.8,Y
1640951315.9,286046999.7,P
1640951335.7,286047000.3,N
1640951355.5,286047002.8,P
1640951375.4,286046999.7,N
1640951395.2,286046999.9,N
1640951415.1,286046999.8,N
1640951416.0,286046999.8,N
1640951435.8,286046999.8,N
1640951455.6,286046999.8,N
1640951475.5,286046999.7,N
1640951495.3,286046999.7,N
1640951515.1,286046999.7,N
1640951535.9,286046999.7,N
1640951555.7,286046999.7,N
1640951575.6,286046999.7,N
1640951595.4,286047002.7,Y
1640951615.2,286046999.9,P
1640951635.1,286047002.8,P
1640951636.0,286047002.8,N
1640951655.8,286046999.7,N
1640951675.6,286047000.1,N
1640951695.5,286046999.7,N
1640951715.3,286047002.8,N
1640951735.2,286047002.8,N
1640951755.9,286046999.7,N
1640951775.7,286047002.8,N
1640951795.6,286047002.8,N
1640951815.4,286047000.1,N
1640951835.2,286047002.3,N
1640951855.1,286047002.4,N
1640951856.0,286047002.4,N
1640951875.8,286047002.7,N
1640951895.7,286047002.8,N
1640951915.5,286047002.7,N
1640951935.3,286047002.3,N
1640951955.2,286047002.7,N
1640951975.0,286047002.3,N
1640951975.9,286047002.3,N
1640951995.8,286047002.3,N
